User: anonymous
Location: Scultetus-Sternwarte G�rlitz
(51.1356°N, 14.9514°E)
Time: 04:26:27
(UTC+02:00)
Language:

Iridium 3 - Orbit

View from above orbital plane
View from above orbital plane
View from above satellite
View from above satellite

Ground track
Ground track

The orbit data is extracted from the following two-line orbital elements,

1 25431U 98048A   14266.22929993  .00000472  00000-0  16158-3 0  8961
2 25431 086.3954 312.8347 0002350 104.1427 321.9003 14.34217784842574
Epoch (UTC): 23 September 2014 05:30:11
Eccentricity: 0.0002350
inclination: 86.3954°
perigee height: 776 km
apogee height: 779 km
right ascension of ascending node: 312.8347°
argument of perigee: 104.1427°
revolutions per day: 14.34217784
mean anomaly at epoch: 321.9003°
orbit number at epoch: 84257

The dashed part of the orbit path shows where the satellite is in the earth's shadow,  

DLR